Flag for Germany Weather past 2 weeks in Friedrichshafen, Baden-Württemberg, Germany

Now
55 °F

Light rain. Overcast.


Feels Like: 55 °F
Forecast: 52 / 70 °F
Wind: 5 mph from Northeast

Location: Friedrichshafen Airport

Current Time: Sep 4, 2015 at 12:06:47 AM

Latest Report: Sep 3, 2015 at 11:20 PM


Visibility: N/A

Pressure: 30.04 "Hg

Humidity: 82%

Dew point: 50 °F

Location of FriedrichshafenLocation

Historic Weather in Friedrichshafen — Graph

°F

Friedrichshafen temperature yesterday

Maximum temperature yesterday: 64 °F (at 2:20 PM)
Minimum temperature yesterday: 55 °F (at 6:20 AM)
Average temperature yesterday: 60 °F

Past Weeks' High & Low Weather Summary

 TemperatureHumidityPressure
High90 °F (Aug 30, 4:20 PM)94% (Aug 20, 1:20 AM)30.27 "Hg (Aug 20, 1:20 AM)
Low48 °F (Aug 26, 4:20 AM)27% (Aug 30, 3:50 PM)29.71 "Hg (Aug 24, 7:50 AM)
Average66 °F66%30.05 "Hg
* Reported Aug 19 10:20 PM — Sep 3 10:50 PM, Friedrichshafen, Weather by CustomWeather, © 2015

Note: Actual official high and low records may vary slightly from our data, if they occured in-between our weather recording intervals... More about our weather records

Advertising

Friedrichshafen weather history for previous 24 hours

 ConditionsComfort  
Time TempWeatherWind HumidityBarometerVisibility
10:50 PM
Thu, Sep 3
57 °FMostly cloudy.5 mph72%30.01 "HgN/A
10:20 PM57 °FOvercast.8 mph77%30.01 "HgN/A
9:50 PM57 °FPartly cloudy.5 mph82%30.01 "HgN/A
9:20 PM59 °FPassing clouds.5 mph77%30.01 "HgN/A
8:50 PM59 °FSunny.6 mph82%29.98 "Hg10 mi
8:20 PM59 °FSunny.7 mph82%29.98 "Hg10 mi
7:50 PM59 °FSunny.6 mph82%29.98 "Hg10 mi
7:20 PM61 °FPartly sunny.6 mph77%29.98 "HgN/A
6:50 PM61 °FPassing clouds.5 mph77%29.98 "HgN/A
6:20 PM61 °FBroken clouds.6 mph77%29.98 "HgN/A
5:50 PM61 °FMostly cloudy.5 mph83%29.98 "Hg6 mi
5:20 PM61 °FBroken clouds.6 mph83%29.98 "Hg4 mi
4:50 PM61 °FMostly cloudy.5 mph83%29.98 "Hg5 mi
4:20 PM61 °FSprinkles. Broken clouds.2 mph77%29.98 "HgN/A
3:50 PM61 °FLight rain. Cloudy.5 mph77%29.98 "Hg5 mi
3:20 PM63 °FMostly cloudy.6 mph73%29.98 "HgN/A
2:50 PM63 °FMore clouds than sun.2 mph68%29.98 "HgN/A
2:20 PM64 °FCloudy.No wind64%29.98 "HgN/A
1:50 PM63 °FCloudy.3 mph68%29.98 "HgN/A
1:20 PM63 °FMostly cloudy.3 mph68%29.98 "HgN/A
12:50 PM63 °FMostly cloudy.3 mph64%29.98 "HgN/A
12:20 PM63 °FPartly sunny.6 mph64%29.98 "HgN/A
11:50 AM63 °FBroken clouds.5 mph68%29.98 "HgN/A
11:20 AM63 °FBroken clouds.5 mph68%29.98 "HgN/A
10:50 AM63 °FBroken clouds.3 mph68%29.98 "HgN/A
10:20 AM61 °FBroken clouds.3 mph77%29.98 "HgN/A
9:50 AM59 °FBroken clouds.3 mph77%29.98 "HgN/A
9:20 AM59 °FPartly sunny.3 mph77%29.98 "HgN/A
8:50 AM57 °FMostly cloudy.2 mph82%29.98 "HgN/A
7:50 AM57 °FBroken clouds.2 mph82%29.98 "Hg6 mi
7:20 AM55 °FClear.3 mph82%29.95 "Hg6 mi
6:20 AM55 °FPassing clouds.3 mph82%29.95 "Hg4 mi
5:20 AM57 °FPartly cloudy.3 mph77%29.98 "HgN/A
4:50 AM57 °FOvercast.5 mph82%29.98 "HgN/A
4:20 AM57 °FPassing clouds.5 mph82%29.98 "HgN/A
3:50 AM57 °FPassing clouds.6 mph82%29.95 "HgN/A
3:20 AM57 °FClear.6 mph82%29.98 "Hg10 mi
2:50 AM57 °FOvercast.3 mph82%29.98 "HgN/A
2:20 AM59 °FClear.3 mph77%29.98 "Hg10 mi
1:50 AM59 °FOvercast.3 mph77%29.98 "HgN/A
1:20 AM59 °FOvercast.3 mph77%29.98 "HgN/A
12:50 AM59 °FMostly cloudy.3 mph77%29.98 "HgN/A
Weather by CustomWeather, © 2015

See weather overviewHow to use our weather pages